Location: Lussas
(44.6119°N, 4.4726°E)
Time: 13:24:30
(UTC+00:00)

SAR-Lupe-1 - Pass Details

Date: 25 April 2021
Orbit: 482 x 483 km, 98.2° (Epoch: 30 March)

Event Time Altitude Azimuth Distance (km) Brightness Sun altitude
Rises 19:47:21 0° 1° (N) 2,559 8.2 -11.6°
Reaches altitude 10° 19:49:40 10° 347° (NNW) 1,673 7.5 -12.0°
Maximum altitude 19:52:36 24° 292° (WNW) 1,039 6.7 -12.4°
Drops below altitude 10° 19:55:31 10° 237° (WSW) 1,662 7.1 -12.8°
Sets 19:57:50 0° 224° (SW) 2,536 7.8 -13.2°
